Theta_e
318 323 323 325 324 326 331 333 336 335 335 324 319 324 320 322 324 321 321 321 323 320 319 320 320 320 320 320 320 319 318 319 319 329 329 327 325 313 313 312 313 318 321 331 333 329 332 338 338 336 336 339 341 341 342 343 342 342 342 342 342 341 341 342 341 341 343 343 342 342 342 341 341 340 340 340 340 339 338 337 338 337 336 334 329 325 327 331 332 333 339 341 341 340 340 338 332
318 323 327 328 323 330 340 337 337 335 331 322 317 323 318 322 324 319 321 320 321 319 321 321 320 321 320 320 320 319 318 319 318 326 328 322 321 315 314 315 316 319 319 327 334 331 329 333 338 339 337 336 339 340 341 341 342 342 341 341 341 341 341 342 341 342 343 342 343 343 342 341 341 341 341 341 341 339 339 338 338 338 338 337 333 327 330 335 335 335 338 341 342 341 340 339 334
321 324 327 329 327 332 341 340 339 333 326 320 315 321 320 320 320 319 321 319 320 319 321 320 320 321 320 321 318 319 318 319 318 323 328 318 317 317 316 318 318 317 321 329 334 334 331 332 337 340 340 337 337 339 340 340 341 341 341 341 341 340 341 341 341 342 343 343 343 343 342 341 341 340 340 340 340 339 339 339 339 339 338 338 336 332 335 338 337 337 339 341 342 341 340 340 337
324 326 327 328 336 337 340 342 341 333 321 319 317 318 320 320 320 319 320 320 321 320 319 319 320 319 318 319 317 318 317 319 317 319 325 318 317 318 317 319 317 316 323 333 336 336 335 336 337 339 340 340 339 339 340 341 341 340 340 340 340 340 340 341 341 341 343 343 341 342 343 342 341 339 339 339 339 340 339 339 339 339 338 337 339 337 338 339 339 339 338 338 339 341 341 340 339
322 325 326 327 340 335 332 335 335 331 318 320 320 317 319 319 320 318 318 320 321 321 319 318 319 317 317 317 317 319 317 319 317 316 320 317 317 318 317 318 316 317 321 328 334 336 337 337 336 335 337 339 340 339 339 339 340 340 341 341 339 339 340 341 340 339 342 341 339 341 342 341 341 340 339 339 339 340 339 339 339 338 337 335 337 339 339 340 340 340 339 338 338 341 341 340 341
319 323 326 327 335 327 329 330 323 323 316 323 321 316 320 318 319 318 317 318 320 321 319 318 317 317 317 317 317 317 317 318 317 317 318 317 318 318 319 319 318 321 322 323 327 331 333 333 333 333 333 334 336 337 339 338 339 339 340 341 340 339 339 340 340 340 342 342 340 341 341 340 340 340 340 339 339 339 338 338 338 338 337 336 336 337 338 339 339 341 341 340 340 341 342 341 341
320 324 328 330 332 327 336 330 319 323 318 321 321 317 320 318 319 319 318 318 318 319 318 318 316 316 316 317 317 316 315 315 316 316 317 318 319 318 320 321 321 323 325 324 325 327 328 329 330 330 331 332 333 333 335 336 338 338 338 339 339 339 339 340 340 340 340 342 341 341 341 340 339 339 339 339 339 338 337 337 336 336 337 337 337 336 337 337 339 341 341 341 342 341 342 342 342
322 324 330 338 337 331 335 327 320 328 320 317 321 319 319 318 319 319 320 319 317 318 317 317 317 316 314 315 316 314 313 314 314 314 316 319 318 317 318 320 320 321 321 321 322 325 326 327 329 329 330 331 331 331 332 333 334 336 336 337 338 339 339 339 340 340 340 340 340 340 340 340 338 338 339 338 338 337 337 336 334 335 337 338 338 337 336 336 338 339 340 340 340 341 341 342 343
321 324 332 340 336 333 332 326 322 323 320 318 319 320 320 318 319 318 319 318 317 316 315 316 317 316 313 314 314 313 312 313 313 312 313 314 314 312 314 315 315 315 315 315 317 319 322 323 325 326 327 328 329 330 331 331 332 333 334 336 337 338 339 338 339 340 340 340 340 339 339 339 337 337 338 338 338 337 337 336 335 335 336 336 337 337 336 336 336 336 338 338 337 339 341 341 342
325 324 331 336 331 329 326 322 322 319 318 318 317 318 318 318 319 318 317 315 315 316 314 315 316 315 313 313 313 312 312 311 311 312 311 311 311 311 311 312 311 311 311 311 312 314 316 317 319 321 322 324 325 327 328 329 330 332 333 334 336 337 338 338 339 339 339 340 340 340 340 338 337 337 337 337 337 337 337 336 336 336 336 335 334 335 335 336 335 336 337 337 335 335 338 340 342
332 328 334 337 330 323 317 319 321 318 317 317 317 317 317 317 318 318 317 315 315 316 314 316 315 314 313 313 313 311 310 310 310 311 310 310 310 310 310 310 310 309 308 308 309 310 311 312 313 314 316 318 320 323 325 327 328 329 331 332 333 335 336 337 339 339 339 340 340 340 340 339 338 337 337 336 336 336 336 336 335 335 335 334 334 334 335 336 335 335 335 335 334 333 335 339 342
327 332 337 331 328 321 318 322 319 319 319 318 318 317 317 317 318 317 317 315 314 316 314 315 314 314 314 313 313 310 309 309 309 309 309 309 309 309 309 309 309 308 307 307 307 308 309 309 310 311 312 313 315 318 321 324 325 327 328 329 331 332 333 334 336 337 337 339 340 340 339 339 338 337 336 336 335 335 335 334 333 333 333 333 333 333 334 335 335 335 334 332 332 333 333 337 341
323 329 332 326 331 324 320 323 320 325 322 319 319 317 317 317 317 316 317 315 316 316 313 313 313 314 314 313 311 308 308 307 308 308 308 308 307 307 307 307 307 307 307 306 306 306 307 308 308 310 311 311 311 313 316 319 322 324 326 327 327 329 330 332 333 334 335 335 337 338 338 338 338 337 335 335 335 335 334 332 333 332 332 332 332 333 333 333 333 333 333 331 331 332 331 335 340
325 327 327 328 335 324 320 321 322 328 319 317 319 316 317 316 316 316 318 317 315 315 312 312 313 316 314 313 310 308 307 305 306 307 306 305 305 305 305 305 305 306 306 305 305 305 306 306 306 308 310 309 309 311 313 315 318 320 322 324 325 326 328 329 330 332 333 333 334 335 337 338 337 337 336 336 335 334 333 332 332 332 332 332 331 332 333 332 331 332 332 331 330 330 330 334 339
324 328 329 330 333 324 321 320 323 326 317 318 318 316 317 315 318 318 318 316 313 313 311 311 312 315 313 310 309 307 305 304 304 304 304 303 303 303 304 304 305 305 305 305 304 304 305 305 305 306 308 307 307 311 313 313 314 316 318 320 321 323 325 326 328 329 331 332 332 331 333 336 336 336 336 336 335 334 334 333 333 332 332 332 331 331 332 332 331 331 331 330 329 329 329 332 338
324 334 336 329 330 323 319 321 325 323 316 318 316 316 317 314 317 316 315 314 311 311 311 309 309 310 308 307 307 305 303 303 303 303 302 302 302 302 302 303 303 304 305 305 304 304 303 304 303 304 307 306 305 310 312 311 312 313 315 316 318 320 321 323 324 326 328 330 331 331 330 332 334 336 336 336 336 335 335 334 334 333 332 331 331 331 331 332 331 331 330 329 329 329 328 330 335
333 345 340 331 330 322 318 320 322 320 316 317 315 316 316 313 315 314 312 311 309 309 308 307 306 306 305 305 304 303 302 302 302 302 301 301 301 301 301 301 302 303 303 304 304 304 303 303 303 302 304 303 302 306 308 308 309 311 313 314 316 317 319 320 321 323 324 327 329 331 331 331 332 333 335 336 336 335 335 335 333 332 332 331 331 330 330 331 331 330 330 329 329 328 328 330 334
338 343 330 330 332 321 319 318 317 319 316 315 314 315 316 314 314 314 313 310 309 307 306 305 304 304 303 303 302 302 302 301 301 301 301 300 300 300 300 300 301 301 302 303 303 303 302 302 303 302 302 302 300 301 303 305 306 309 310 311 313 315 316 317 319 321 322 324 325 326 329 331 331 331 332 334 335 333 333 334 334 332 332 331 330 330 329 331 331 330 329 329 329 328 328 331 335
332 333 324 332 334 320 318 316 315 317 315 316 315 315 316 314 313 314 314 310 309 307 306 304 304 303 303 302 302 302 301 301 301 300 300 300 300 299 299 299 300 301 301 301 302 302 301 301 302 302 301 302 302 300 299 301 303 305 304 305 308 311 314 315 317 318 320 322 324 325 326 328 330 332 331 332 334 333 332 333 333 333 333 331 330 330 329 331 332 330 328 328 328 328 329 331 335
328 327 325 335 331 319 319 315 315 316 316 317 316 315 314 313 313 313 311 309 308 307 306 304 303 303 303 302 301 301 301 300 300 300 300 300 299 299 298 299 299 300 299 300 301 301 300 299 301 302 301 301 303 300 298 298 299 301 299 299 302 305 308 311 314 315 317 319 321 323 324 326 327 330 332 332 332 333 333 333 333 334 333 331 331 331 331 332 332 331 328 327 327 330 332 332 334
324 322 326 334 324 317 319 315 316 317 316 316 315 316 314 312 313 312 312 312 308 305 305 303 303 302 302 302 300 300 300 300 300 299 299 299 299 299 298 298 298 298 298 299 300 299 298 298 300 302 301 300 301 300 299 297 298 299 297 297 298 299 301 305 309 313 316 317 318 319 321 323 325 326 328 331 332 333 333 332 333 334 334 332 331 331 333 334 333 331 328 327 328 330 332 333 333
321 321 323 324 317 316 317 316 318 317 316 317 315 315 313 312 311 310 313 313 307 304 303 303 302 301 301 301 300 299 299 299 299 299 298 298 298 298 298 297 298 297 297 298 298 298 298 297 298 301 300 300 300 300 299 298 298 299 298 297 297 297 298 299 303 310 314 315 317 318 318 320 321 323 324 327 330 332 332 331 332 332 333 333 331 332 334 335 334 331 328 327 328 329 331 332 332
318 320 319 317 316 316 316 315 318 318 316 316 314 314 313 311 309 307 308 307 305 303 302 301 301 300 300 299 299 300 299 298 298 298 298 297 297 298 297 297 297 297 296 297 297 297 297 297 297 299 299 299 300 299 299 298 298 299 298 298 298 298 298 298 302 307 308 311 315 318 319 319 320 321 323 324 326 329 331 331 331 332 333 333 332 332 332 335 334 330 328 326 326 327 329 331 332
317 321 320 316 316 316 317 315 316 317 315 314 313 312 312 313 311 306 304 304 303 302 301 300 300 299 299 299 299 299 298 297 298 298 297 297 297 297 297 296 297 296 296 296 297 296 296 297 297 297 298 298 298 298 298 297 297 298 298 298 298 299 299 300 302 301 302 307 312 315 317 319 320 321 322 322 323 325 328 329 330 331 332 332 332 332 332 334 334 331 328 326 326 325 327 330 333
319 322 320 316 317 317 318 316 315 316 314 314 315 312 312 313 310 305 304 304 303 302 300 299 299 299 299 299 299 298 297 297 297 297 297 297 296 296 297 296 296 296 296 296 296 296 296 296 296 297 297 297 296 296 296 296 297 297 297 297 297 298 299 301 301 299 301 305 307 308 310 314 318 319 321 322 322 323 325 326 327 329 330 331 332 332 332 334 333 330 328 327 325 326 329 332 333
319 320 318 316 317 316 317 315 315 316 313 313 314 312 310 310 309 306 304 303 302 302 301 300 299 299 299 299 298 296 296 297 297 297 297 296 296 296 296 296 296 296 296 296 296 296 296 296 295 296 296 296 296 296 296 295 296 296 296 296 297 297 298 299 299 300 302 302 301 301 303 308 313 316 318 320 321 322 324 325 326 327 328 330 331 332 332 333 332 329 328 328 326 329 332 332 332
318 317 317 315 316 316 315 315 315 315 313 312 312 312 309 309 312 309 304 303 303 302 300 300 300 299 299 299 298 297 296 297 296 297 296 296 296 296 296 296 296 295 296 296 295 296 296 295 295 295 296 296 295 295 295 295 295 296 296 296 296 296 297 298 298 300 301 300 298 299 299 303 306 309 313 315 317 319 322 324 325 326 327 328 330 332 332 332 331 328 328 328 328 330 333 332 332
316 314 315 315 315 314 314 314 314 314 312 312 312 312 310 309 313 309 303 303 302 301 301 300 299 299 299 300 299 297 296 297 296 296 296 296 296 296 295 296 295 295 295 295 295 295 295 294 294 295 295 295 295 295 295 295 295 295 295 295 295 295 296 297 298 299 299 299 298 298 298 298 299 303 306 308 313 317 320 321 323 325 326 326 329 331 332 332 330 328 328 328 328 330 332 332 332
314 313 314 316 315 314 314 314 314 313 312 314 313 312 311 310 311 306 303 303 302 301 301 300 300 299 299 299 300 298 296 296 296 295 296 295 295 295 294 294 295 294 295 294 294 294 294 294 294 295 295 294 294 294 294 295 295 295 295 295 295 295 295 296 297 298 298 298 298 298 298 297 298 300 301 304 312 315 315 316 319 322 324 325 327 329 331 331 330 329 329 329 329 330 331 332 331
313 313 313 316 315 316 316 313 314 313 313 315 312 313 313 309 307 304 303 302 302 301 301 300 300 300 299 300 300 299 296 296 296 295 295 295 295 294 294 293 294 294 294 293 293 294 294 294 294 294 294 294 294 294 294 294 294 294 294 294 295 295 295 296 296 297 297 298 298 298 298 298 298 299 300 304 310 311 311 313 315 318 321 323 325 326 328 328 329 329 330 330 330 330 330 330 330
314 312 316 318 316 323 320 313 315 312 313 315 311 314 313 307 305 304 303 302 301 301 300 300 300 300 300 300 300 299 297 296 296 295 294 295 294 293 293 293 293 293 293 293 293 293 293 294 294 294 293 293 294 294 294 294 294 294 294 294 294 294 295 295 296 296 297 297 297 297 298 298 298 299 300 302 306 309 310 311 312 314 316 319 323 325 326 326 328 329 329 330 330 329 329 328 328
315 313 323 325 317 323 320 311 315 313 313 314 311 316 313 307 306 304 303 302 301 300 300 300 300 299 299 299 299 299 298 296 296 295 294 294 293 292 293 293 293 292 292 293 293 293 293 293 293 293 293 293 293 293 293 293 293 293 293 294 294 294 294 295 295 296 296 296 297 297 297 297 298 299 299 300 305 309 306 305 308 308 309 314 320 323 325 325 327 328 328 329 328 328 328 327 327
323 316 321 324 316 317 315 310 314 314 313 312 311 314 312 308 307 304 302 301 300 300 299 299 299 299 299 299 299 299 298 297 296 295 293 293 292 292 292 292 292 292 292 292 292 293 293 293 293 293 293 293 293 293 293 293 293 293 293 293 293 294 294 294 295 295 296 296 296 297 296 297 297 299 299 299 304 306 302 302 304 303 303 307 314 320 323 324 325 326 326 327 328 327 327 327 326
330 323 318 318 315 312 313 313 313 314 313 312 311 311 311 310 307 304 302 301 300 299 299 299 299 299 299 299 299 299 299 298 296 294 292 293 292 292 292 292 292 292 292 292 292 292 292 293 293 293 293 293 293 293 293 293 293 293 293 293 293 293 293 294 294 294 295 296 296 296 296 296 297 299 299 299 302 303 301 300 301 301 303 306 310 315 320 323 324 325 326 327 327 326 327 326 325
322 322 317 316 316 311 312 311 312 314 313 312 312 311 311 310 306 304 302 300 300 299 299 298 298 299 299 300 300 299 299 297 295 293 292 292 292 292 292 292 292 292 292 292 292 292 292 293 293 293 293 293 293 293 293 293 293 293 293 293 292 292 293 293 294 294 294 295 295 295 296 296 297 298 298 299 301 301 300 300 300 301 303 306 309 311 314 320 323 325 325 325 327 327 326 326 325
315 316 315 314 315 311 310 310 311 314 312 312 312 311 312 308 305 305 302 300 300 299 299 298 298 299 300 300 300 300 299 296 294 293 292 292 292 292 292 291 292 291 292 292 292 292 292 292 292 293 293 293 293 292 292 292 292 292 292 292 292 292 292 293 293 293 294 294 294 295 296 296 297 297 298 299 301 301 301 301 301 301 302 305 308 309 310 314 318 323 325 325 325 326 326 326 326
310 312 313 313 313 311 310 310 311 311 310 313 313 312 312 309 306 304 302 300 300 299 299 299 299 299 300 300 299 298 297 295 293 293 293 292 292 292 291 291 291 291 292 292 292 292 292 292 292 292 292 292 292 292 292 292 292 292 292 292 292 292 292 292 293 293 293 294 294 295 295 296 296 296 298 299 300 301 301 301 301 301 301 304 307 308 308 308 311 316 322 324 324 325 325 325 325
310 312 312 313 313 312 311 311 311 309 309 314 314 311 310 309 308 304 301 300 299 299 299 298 299 300 300 300 299 297 296 295 294 293 293 293 292 292 291 291 291 291 291 292 292 292 292 292 292 292 292 292 292 292 291 291 292 292 292 291 291 291 292 292 292 293 293 293 294 294 294 295 295 296 297 298 300 301 301 302 301 300 300 303 307 307 305 306 306 309 316 323 324 323 325 324 324
312 312 312 313 315 314 313 312 311 308 309 313 313 310 308 309 308 304 301 300 299 299 298 298 299 300 300 299 298 297 296 295 295 293 292 292 292 291 291 291 291 291 291 292 292 292 292 291 291 291 291 291 291 291 291 291 291 291 291 291 291 291 291 292 292 292 293 293 293 294 294 294 295 296 296 297 299 300 301 302 301 300 299 301 306 307 304 304 305 305 311 319 323 323 323 324 323
313 313 313 315 316 316 315 314 313 310 309 311 310 308 306 307 307 303 300 300 300 299 300 300 300 299 299 299 298 297 296 295 295 295 293 292 292 291 291 291 291 291 291 292 292 291 291 291 291 291 291 291 290 290 290 290 290 291 290 290 290 290 290 290 290 290 291 291 291 292 292 293 294 295 296 296 298 299 301 301 301 300 299 299 303 306 304 302 303 304 306 313 321 323 322 322 323
318 317 315 315 315 315 315 314 313 310 310 311 308 307 308 308 306 303 300 300 300 300 300 300 300 300 300 299 298 298 297 295 295 295 293 291 291 291 291 291 291 291 291 291 291 291 291 290 290 290 290 290 290 289 289 289 289 289 289 288 288 288 288 288 288 288 288 288 288 289 290 291 293 294 295 296 297 299 300 301 301 300 299 298 301 305 304 302 302 303 304 307 314 322 322 321 323
319 321 319 318 316 314 316 315 312 310 311 312 308 308 311 309 306 303 300 299 299 299 298 298 298 299 299 298 297 297 297 295 294 294 292 291 291 291 291 291 291 291 291 291 291 291 290 290 290 289 289 289 289 289 288 288 288 287 287 287 286 286 286 287 287 287 286 286 286 287 287 289 291 293 294 295 296 298 299 301 301 300 299 298 299 304 305 303 302 302 304 304 307 315 321 322 322
316 319 319 317 312 312 314 313 311 311 312 310 306 308 309 307 306 303 299 299 299 298 298 297 297 297 297 297 297 296 295 295 295 294 292 291 291 291 290 291 291 291 291 291 291 290 290 290 289 289 289 288 288 288 288 287 286 286 286 285 285 285 285 286 286 285 285 285 285 285 285 286 288 290 293 294 295 297 298 300 300 300 300 298 298 304 306 304 303 302 304 305 304 307 315 322 322
318 316 314 311 309 311 312 311 310 310 309 308 307 307 307 307 307 303 299 300 298 297 297 296 296 297 297 297 297 295 294 294 294 295 293 290 290 290 290 291 291 291 291 290 290 290 289 289 289 288 288 287 287 287 287 286 285 285 285 284 284 284 284 284 284 284 285 285 285 284 284 284 286 288 291 294 294 296 297 298 300 300 300 298 298 303 306 305 304 303 304 304 304 303 307 317 323
317 315 310 307 308 310 310 310 310 308 306 307 308 308 307 309 309 303 300 300 299 297 296 296 295 296 296 296 296 294 294 294 293 294 293 290 290 291 290 291 291 290 290 290 290 290 289 289 288 288 287 287 287 286 286 285 284 284 283 283 283 283 283 283 283 283 283 283 283 283 283 283 284 286 290 293 294 295 295 298 300 300 299 297 297 301 304 304 303 303 303 303 303 303 302 310 321
313 311 310 309 310 310 308 308 307 305 307 308 308 308 307 309 310 305 301 302 301 297 295 295 295 295 295 295 295 294 294 294 294 293 291 290 291 290 290 291 290 290 290 290 290 289 289 288 288 287 287 286 286 285 285 284 284 283 283 283 282 282 282 282 282 281 281 281 282 282 283 284 285 286 290 292 294 294 295 297 299 299 299 297 296 297 299 299 300 301 302 302 302 303 301 303 314
309 308 310 312 313 310 308 308 307 307 311 310 309 309 307 307 309 305 302 303 302 298 295 295 294 294 295 295 295 294 293 293 294 293 290 290 290 290 290 290 290 290 290 290 290 289 289 288 287 287 286 286 285 284 284 283 283 283 282 282 281 281 281 280 280 280 280 280 281 282 283 284 285 287 289 291 292 294 295 297 298 298 299 297 294 295 295 295 297 299 300 301 301 301 301 300 307
309 312 312 312 317 314 310 312 310 310 315 313 307 307 305 306 308 305 302 302 301 298 295 294 294 293 294 295 295 294 294 294 294 294 291 289 289 289 290 290 290 290 290 289 289 289 288 287 287 286 286 285 285 284 283 283 282 282 281 281 280 280 280 280 280 279 279 280 281 281 282 282 283 284 286 288 290 292 295 297 298 299 299 297 294 294 294 294 296 298 299 301 300 300 301 301 304
312 315 311 310 317 318 315 316 312 310 315 310 303 304 303 303 306 306 304 301 298 297 295 293 293 293 294 295 294 295 295 294 294 293 293 290 288 288 289 289 289 289 289 289 289 288 288 287 286 286 285 285 284 283 283 282 282 281 281 280 280 279 279 279 279 279 279 279 280 280 280 280 281 282 283 285 287 289 291 293 296 298 299 297 295 294 295 294 295 297 299 300 300 301 302 301 303
311 314 312 311 315 315 315 317 315 315 316 309 300 302 304 304 305 304 301 298 296 295 294 293 293 293 294 294 294 295 294 294 293 293 293 291 289 288 289 289 289 289 289 289 288 288 287 287 286 286 285 284 284 283 283 282 281 281 280 280 279 279 278 278 278 278 278 278 278 278 279 279 280 281 281 283 284 286 287 289 292 296 298 297 297 295 295 295 295 297 298 299 301 301 301 302 301
311 313 314 313 313 315 317 317 317 316 316 309 301 303 308 307 303 299 296 294 294 293 293 293 294 294 294 294 294 294 293 293 293 292 292 290 288 288 289 289 289 289 289 288 288 287 287 286 286 285 285 284 283 283 282 282 281 280 280 279 279 278 277 277 277 277 277 277 277 278 278 279 279 280 280 282 284 284 286 287 289 293 297 297 297 295 295 295 295 296 298 299 300 301 301 302 301
311 309 309 310 311 314 313 311 311 309 309 306 303 306 308 302 297 295 294 293 293 293 293 293 294 294 294 294 293 293 292 292 292 292 293 290 288 289 289 288 289 288 288 288 287 287 286 286 286 285 284 283 283 282 282 281 280 280 279 278 278 277 277 276 276 276 276 276 277 277 278 279 278 279 280 281 283 284 285 286 287 290 294 297 297 295 295 295 295 296 297 298 299 301 301 302 302
310 306 309 310 308 306 306 307 308 306 307 306 304 306 305 300 297 294 293 293 292 292 293 292 293 293 294 294 293 292 292 292 292 292 292 290 288 288 289 288 289 288 288 287 287 286 286 286 285 284 284 283 283 282 281 281 280 279 279 278 277 277 276 276 276 276 276 275 276 276 277 278 278 278 279 280 282 284 285 286 286 287 291 295 297 295 294 294 295 295 296 297 298 299 301 302 303
307 308 311 309 305 303 304 308 308 305 306 307 305 304 303 303 302 295 292 293 292 291 292 292 293 293 293 293 292 291 291 292 292 292 291 289 288 288 288 288 288 288 287 287 286 286 285 285 285 284 283 283 282 282 281 280 279 279 278 277 277 276 276 276 275 275 275 275 275 275 276 277 277 277 278 279 282 284 284 284 285 286 288 292 296 295 294 294 294 294 295 296 297 297 300 301 302
305 307 306 305 307 306 305 307 308 307 308 309 307 305 302 303 302 295 293 293 292 291 292 292 293 293 293 293 292 291 292 292 292 292 292 289 287 288 288 288 288 287 287 286 286 285 285 285 284 283 283 282 282 281 280 280 279 278 278 277 277 276 276 275 275 275 275 275 275 275 275 276 276 277 277 279 280 282 282 283 285 286 287 289 293 295 295 294 294 294 294 295 296 296 298 300 302
301 302 302 303 304 305 304 305 306 307 309 309 309 307 304 304 301 296 294 293 292 292 292 293 293 292 293 293 292 292 292 292 292 292 292 289 287 288 288 288 287 287 286 286 285 285 284 284 283 283 282 282 281 280 280 279 278 278 277 277 276 275 275 275 274 274 274 274 274 274 275 275 276 276 277 278 279 280 281 283 284 285 285 287 291 294 295 295 294 294 294 294 295 296 297 299 301
300 300 300 300 300 303 305 303 302 304 306 307 307 307 306 304 301 297 296 294 293 292 293 294 293 292 293 292 293 293 292 292 291 291 291 289 286 287 288 287 287 286 285 285 284 284 283 283 282 282 282 281 280 280 279 279 278 277 277 276 276 275 275 275 274 274 274 274 274 274 274 275 275 276 277 277 278 279 280 281 282 283 283 284 287 291 294 295 294 294 294 294 295 295 297 299 301
304 301 301 301 300 303 304 303 302 302 303 305 305 306 306 303 299 297 296 295 294 294 295 294 292 292 292 292 292 292 292 291 290 291 291 288 286 287 287 286 286 285 284 284 283 283 283 282 282 281 280 280 279 279 278 278 278 277 277 276 275 275 275 274 274 274 274 274 274 274 274 274 275 275 276 276 277 278 279 280 280 281 282 282 284 288 292 294 295 294 294 294 294 295 296 299 300
Wind_Speed
7 4 6 5 6 7 5 1 3 2 3 3 0 2 2 2 3 4 5 4 3 1 0 2 2 1 1 2 4 5 7 5 2 4 3 2 5 21 26 25 23 21 22 13 11 13 14 14 12 9 5 7 7 7 7 7 7 10 11 11 11 12 13 13 14 13 13 12 12 11 10 10 10 10 9 9 10 10 11 12 13 14 14 14 13 12 14 15 15 15 13 13 13 13 14 15 14
7 4 5 5 6 3 2 2 4 2 5 4 2 3 1 3 5 5 5 5 2 2 1 2 2 3 2 2 6 8 9 8 7 5 4 7 7 21 29 23 23 22 24 16 11 12 13 15 13 12 7 7 8 8 8 7 7 8 10 10 12 12 12 14 14 14 14 13 13 12 12 12 11 11 10 11 11 12 12 13 14 15 17 17 16 14 13 13 13 14 14 13 13 14 16 17 16
8 5 5 4 4 0 0 3 4 2 5 4 3 3 1 5 4 4 6 6 3 1 2 4 3 2 4 5 6 7 5 7 11 2 1 18 13 21 29 22 24 21 23 20 11 10 11 13 14 14 12 9 8 9 8 8 8 8 9 10 12 13 13 14 14 14 14 13 14 13 12 13 12 12 12 13 13 14 13 13 14 15 17 18 17 15 14 13 12 13 13 14 14 14 17 18 17
7 5 4 4 2 2 3 3 2 4 4 4 2 4 2 4 3 3 5 6 4 4 4 4 3 1 5 8 4 7 5 3 11 8 2 19 18 19 26 23 26 23 24 21 14 12 11 12 14 15 14 13 10 10 10 10 10 9 9 10 11 13 14 15 14 13 13 13 14 13 13 13 12 13 14 15 15 15 14 15 15 15 16 17 17 15 14 13 12 13 13 14 14 15 17 19 19
7 5 3 2 3 2 2 2 1 5 3 3 3 2 2 3 5 3 3 4 6 6 4 3 2 3 7 8 5 4 3 1 9 15 6 16 21 20 26 27 30 30 28 23 19 18 17 17 17 18 17 15 13 12 12 12 11 11 11 11 12 13 14 15 16 15 13 14 14 13 14 14 12 13 15 16 16 16 16 16 17 16 16 16 17 16 15 14 14 13 13 13 14 15 17 20 21
9 6 1 0 2 1 2 3 2 5 1 3 5 2 1 3 4 4 1 3 5 6 4 3 2 2 7 5 7 5 6 3 4 12 11 17 24 23 26 28 31 33 31 27 23 22 21 21 20 20 19 17 16 15 14 14 14 13 13 13 14 14 15 15 15 16 15 14 14 13 14 14 13 14 15 16 16 16 17 16 17 18 18 17 17 17 16 16 16 15 15 14 14 15 17 20 22
9 6 1 2 2 1 4 3 3 3 2 3 6 4 3 3 2 4 3 2 4 5 4 2 3 7 5 3 8 9 15 13 5 12 13 15 23 25 25 26 29 30 31 30 27 25 23 21 21 21 21 20 19 17 16 16 16 15 15 15 16 16 16 16 15 16 15 14 14 15 16 16 16 16 16 16 17 17 17 17 17 18 20 19 18 19 18 17 16 16 16 15 14 14 16 20 23
5 3 1 4 2 2 3 2 2 3 2 4 6 5 5 3 2 4 2 2 3 2 3 3 5 9 4 6 7 7 18 19 14 21 19 18 25 27 26 26 29 29 28 29 28 27 26 25 24 24 23 23 22 21 19 17 16 17 17 17 17 17 17 18 17 16 15 15 16 17 17 18 18 17 17 17 18 18 17 18 18 19 20 20 21 21 20 19 17 16 16 16 16 15 15 19 23
1 1 2 3 2 3 2 1 1 2 3 4 5 5 4 2 3 3 2 4 3 5 2 4 6 8 5 11 7 3 15 17 18 26 27 27 28 29 29 30 30 30 29 28 27 26 27 27 26 26 26 24 24 23 22 21 19 17 18 18 18 18 18 18 19 19 18 17 18 18 19 19 17 17 18 18 18 19 19 20 20 20 21 21 21 22 21 20 19 17 16 16 17 16 16 18 23
1 1 2 3 2 4 2 0 1 3 4 5 5 4 2 1 4 4 4 5 2 4 4 3 8 9 8 8 4 4 13 17 23 29 30 29 29 30 31 32 31 31 31 30 29 28 27 26 26 26 25 25 24 24 23 23 22 21 19 19 19 19 19 19 18 19 20 19 19 20 21 20 17 18 19 19 20 21 21 22 22 21 21 20 21 22 22 21 20 19 17 17 17 17 18 18 22
2 3 2 4 4 2 1 2 2 4 3 3 3 2 2 1 4 4 5 5 3 4 4 4 7 9 10 7 3 7 15 23 29 29 28 28 29 31 31 31 31 32 33 32 32 32 32 30 29 28 27 26 24 23 23 22 22 23 22 21 21 20 21 21 19 19 20 19 21 21 22 22 20 20 21 21 22 22 22 22 23 23 22 22 22 23 23 21 22 21 19 18 18 19 19 19 22
3 4 4 4 2 1 2 3 4 4 3 3 2 2 3 5 4 3 4 4 3 6 4 3 3 7 8 5 3 9 20 28 28 26 27 27 28 29 30 30 30 30 32 33 33 34 35 34 34 33 32 30 27 25 22 22 22 22 23 23 23 23 23 23 23 22 22 21 21 21 23 23 23 23 23 23 23 23 23 23 23 23 24 24 24 24 23 23 23 23 21 21 20 20 20 19 21
2 1 5 1 3 1 0 3 3 4 4 1 2 2 4 6 3 2 4 5 3 6 5 5 2 7 6 4 4 8 17 25 25 25 26 27 28 28 28 29 30 29 30 32 33 34 35 35 36 35 34 34 32 29 26 24 23 22 22 23 23 24 24 25 25 26 26 25 25 23 23 24 24 25 25 26 25 25 24 25 25 25 25 24 24 23 23 23 23 23 23 23 22 21 20 20 21
1 1 4 1 1 0 1 3 2 4 2 3 2 1 4 3 2 4 6 6 5 5 5 9 2 7 5 3 5 5 11 22 25 25 26 27 27 28 29 29 30 30 30 32 32 33 35 35 35 34 34 35 34 32 30 28 26 25 24 24 24 24 24 25 25 26 27 28 28 27 26 25 25 25 27 27 26 25 25 26 26 26 25 24 24 23 23 24 23 22 22 23 24 22 21 21 21
2 1 4 1 3 2 0 2 3 5 2 2 2 3 5 1 3 6 4 7 7 2 6 15 9 4 4 5 4 3 11 23 25 25 26 27 28 29 29 29 31 31 31 32 32 32 33 34 34 33 33 35 34 33 32 31 30 28 27 27 26 26 25 24 25 25 26 28 30 30 30 29 28 27 27 28 28 26 27 28 27 26 25 25 25 24 24 25 24 23 23 24 25 23 22 21 22
3 2 5 2 2 1 1 2 3 5 2 1 3 4 6 3 1 5 2 7 7 8 9 12 11 8 7 7 6 8 18 26 25 25 27 28 28 29 30 31 30 30 31 32 32 31 31 32 33 33 32 33 34 32 31 32 32 31 29 29 29 29 28 27 26 26 26 27 29 31 31 32 32 31 31 30 30 28 28 29 28 26 26 26 25 24 26 27 26 24 24 26 25 24 24 22 23
3 4 4 2 1 0 1 1 2 3 1 1 4 4 6 1 3 3 5 13 11 11 13 9 11 12 9 9 12 18 24 26 26 27 29 29 28 28 30 31 31 31 31 31 31 30 30 31 32 33 32 33 33 32 31 32 32 32 31 31 30 30 31 30 30 29 28 28 28 30 32 32 33 34 35 34 31 30 30 30 29 28 29 28 27 25 27 28 27 27 25 26 25 24 24 22 23
4 4 3 2 1 1 2 1 1 3 2 0 1 3 6 2 2 1 6 13 11 11 12 10 12 12 13 16 20 23 25 26 27 27 27 25 25 25 26 28 29 30 30 30 29 29 30 31 31 32 32 32 33 32 32 32 32 32 32 32 32 31 31 31 31 31 31 31 30 31 33 33 34 34 35 35 32 30 31 31 30 30 30 30 29 28 29 29 29 28 26 25 24 22 22 21 24
3 2 2 2 4 2 2 4 2 3 4 1 2 4 6 2 2 2 5 6 8 11 9 9 11 11 13 18 21 23 23 25 24 24 23 21 21 20 21 23 25 26 27 27 27 27 29 30 30 30 31 30 31 32 32 33 33 33 33 33 33 33 32 32 32 32 32 32 32 32 33 32 33 35 35 34 34 32 32 32 31 31 31 30 30 29 31 31 30 30 28 26 24 21 21 23 26
1 3 2 5 4 2 1 5 4 3 5 2 4 3 5 2 2 3 6 7 8 8 5 7 9 8 9 11 17 20 21 22 22 23 21 19 19 18 19 20 21 23 24 24 25 27 29 30 29 29 30 30 31 32 32 33 33 33 35 35 35 34 34 34 34 33 33 32 33 33 33 32 32 34 35 34 33 34 34 34 34 32 31 31 31 32 33 33 32 31 28 26 23 22 23 25 27
1 2 2 7 2 3 3 4 5 5 6 3 2 4 4 3 4 3 8 8 7 5 4 8 10 8 8 7 12 16 18 18 18 19 18 17 17 18 19 19 20 22 23 24 25 26 28 28 28 27 28 28 29 30 31 32 32 32 34 34 35 36 36 36 35 35 34 33 34 34 34 33 32 32 34 34 34 34 34 35 36 36 34 33 32 33 34 33 32 31 28 25 23 23 25 26 28
1 2 4 5 1 1 3 4 5 4 6 5 4 4 2 2 6 4 7 8 3 3 6 9 10 9 9 8 10 13 14 13 14 15 15 16 15 15 19 21 21 23 24 23 23 25 25 26 26 24 26 26 26 28 28 31 31 30 32 33 34 35 36 37 37 36 35 35 34 34 35 35 34 32 33 33 33 34 34 35 37 37 37 36 34 35 35 33 33 31 28 26 25 26 26 26 28
0 4 3 3 1 1 2 4 3 5 7 4 2 1 2 7 6 5 10 8 5 6 8 10 11 12 13 12 11 11 9 10 12 14 15 17 18 16 18 21 20 21 24 22 22 24 24 26 26 24 26 26 26 28 28 30 30 29 31 31 33 33 34 36 37 37 36 36 35 34 35 36 35 34 33 32 33 33 34 36 37 39 38 38 37 36 36 35 34 33 30 29 28 28 28 28 29
3 3 4 3 2 2 3 3 3 5 6 0 1 1 3 9 6 4 8 7 7 8 10 12 13 15 16 12 10 9 9 10 13 15 17 19 21 18 16 20 21 20 23 24 22 24 25 27 28 26 27 27 29 30 30 31 30 30 30 31 32 32 32 32 35 38 38 35 34 33 34 35 35 35 34 33 33 34 34 34 36 39 39 37 37 38 37 36 35 34 32 30 30 30 31 31 32
4 4 4 2 3 4 4 3 3 3 3 1 5 5 3 9 8 5 7 7 7 9 10 12 13 13 12 9 8 8 9 12 14 15 16 17 19 20 16 18 21 21 22 24 23 24 25 27 28 27 28 29 31 32 32 33 33 32 32 32 32 33 32 31 33 37 36 35 34 34 34 36 36 35 34 34 35 35 35 34 34 37 40 39 38 39 39 37 36 35 33 31 31 31 32 32 32
4 3 3 2 4 5 4 1 1 3 1 4 7 7 5 10 9 4 4 7 7 9 10 9 10 9 8 7 7 8 8 11 13 13 12 13 16 19 18 17 21 22 21 23 24 25 25 27 29 28 29 31 33 35 36 37 36 35 35 35 35 34 34 33 34 33 32 35 38 38 36 35 35 36 35 34 35 36 36 35 34 35 37 40 40 40 41 40 39 36 35 32 31 31 33 33 33
2 0 2 3 6 6 2 2 0 3 2 3 5 5 7 7 5 3 5 7 7 9 9 8 9 8 7 6 6 8 8 10 13 12 11 13 15 18 18 17 19 21 21 23 25 25 25 27 30 30 30 32 35 37 38 40 39 39 40 40 40 38 37 36 35 33 31 34 38 40 39 36 35 36 36 36 35 37 37 36 35 36 36 37 40 42 41 42 42 38 36 35 33 33 34 33 34
1 4 5 7 7 6 3 3 2 2 1 2 4 5 9 6 1 6 9 7 8 10 9 8 9 7 7 6 5 6 7 10 15 14 11 12 14 15 17 16 17 21 21 23 25 24 25 29 32 31 31 34 36 37 38 39 39 40 42 42 42 41 41 39 37 35 34 34 35 38 40 41 39 36 36 38 37 37 36 36 36 36 37 36 37 41 43 44 43 40 38 38 36 35 35 35 35
1 3 3 7 5 4 5 4 2 3 1 1 2 1 5 6 3 9 11 8 8 10 9 8 8 6 6 6 5 5 7 11 14 14 10 10 12 13 16 17 17 21 22 24 26 26 28 32 32 31 32 35 36 37 38 37 37 39 42 42 41 41 41 40 38 37 36 35 35 36 38 42 41 38 37 37 38 38 36 36 36 35 36 38 37 39 43 44 42 41 40 38 37 35 35 36 35
1 1 2 2 6 4 6 4 2 4 2 2 3 2 4 4 7 11 10 10 10 9 8 7 6 6 5 5 5 5 7 10 10 10 10 9 12 13 16 19 21 24 25 27 29 29 31 33 32 32 34 36 37 38 38 38 38 39 41 42 42 42 40 39 38 39 38 36 36 37 37 39 41 41 38 36 37 38 37 36 36 35 35 37 39 40 40 43 43 42 42 39 38 38 36 36 37
0 0 1 1 2 4 7 4 4 4 3 4 6 3 5 4 8 11 10 10 11 9 7 7 6 5 5 5 5 5 6 8 6 7 11 10 14 17 19 22 24 26 27 29 31 31 32 32 33 34 36 37 37 37 38 38 38 38 39 40 41 42 42 40 39 39 38 38 39 39 38 38 40 40 38 37 36 36 35 35 36 36 36 36 37 41 39 41 47 45 44 42 37 37 37 36 37
1 0 3 2 3 4 6 3 6 6 3 4 5 3 3 5 8 9 9 9 11 10 8 7 6 6 5 4 5 5 4 6 4 6 12 14 18 22 22 24 25 26 28 30 31 32 31 32 33 35 36 35 35 35 36 36 37 37 38 38 38 40 41 41 39 39 38 40 40 39 40 40 39 38 38 38 35 32 33 35 36 36 37 37 36 40 39 36 44 46 44 44 41 36 35 35 37
3 1 3 4 2 3 3 3 4 6 2 1 4 4 2 4 8 8 7 9 10 9 8 7 7 6 5 4 4 4 4 3 2 5 12 17 20 23 23 24 25 26 27 29 30 30 30 31 33 34 34 34 34 34 36 36 37 37 37 38 37 38 39 40 39 39 39 39 39 40 42 42 39 37 37 37 34 33 34 36 37 38 38 37 37 37 40 38 37 42 43 44 43 39 36 36 36
4 2 2 4 3 3 2 5 5 3 3 4 5 5 4 4 10 10 8 9 9 9 8 8 7 6 5 5 4 4 4 1 1 4 13 18 21 22 22 23 23 24 25 26 28 28 29 31 31 33 34 33 33 34 36 38 38 38 37 37 38 38 37 39 39 39 39 39 39 41 42 42 40 38 37 36 35 34 35 36 38 39 38 36 36 36 39 41 37 39 44 44 43 41 39 38 37
3 3 3 4 4 3 4 4 3 3 4 5 5 6 7 4 10 10 8 9 9 9 8 7 7 6 6 5 4 5 4 2 1 7 15 18 19 19 20 21 20 21 23 24 26 27 29 31 31 32 34 33 32 33 36 38 39 38 37 38 39 39 38 38 39 39 39 39 40 41 41 41 40 39 38 37 35 35 34 35 38 38 37 36 34 35 36 37 37 38 42 43 43 43 43 43 41
6 6 3 4 5 5 7 5 4 5 4 6 6 7 6 5 9 9 7 8 8 8 7 6 7 6 6 5 4 5 4 2 3 9 15 15 15 15 16 18 19 20 21 23 26 29 30 31 30 32 33 32 32 35 37 38 37 36 36 38 39 40 39 39 39 39 39 39 41 41 41 40 40 41 40 37 36 34 33 34 36 37 37 36 33 33 34 33 34 37 42 46 44 39 40 43 43
3 4 3 6 6 6 7 6 4 4 3 6 7 7 7 6 10 11 7 7 8 9 8 7 7 6 6 6 5 5 5 3 5 9 11 10 10 13 15 17 18 19 21 25 29 30 30 29 29 32 33 31 32 35 37 37 36 35 36 37 39 42 41 40 40 39 38 39 40 41 42 41 41 42 40 38 36 35 33 33 34 35 36 36 34 32 34 36 35 35 37 43 45 39 36 39 43
2 3 4 6 5 7 8 5 4 3 1 6 6 6 8 7 9 9 9 9 11 11 10 8 8 7 6 6 6 5 4 1 2 5 6 7 9 12 15 17 18 19 22 26 28 28 27 27 29 32 33 32 32 35 37 38 37 36 36 38 42 44 42 39 40 41 41 41 41 41 42 42 41 41 40 39 37 35 32 32 32 33 35 36 35 33 34 38 36 38 38 33 39 38 37 37 40
3 3 2 5 5 5 7 4 3 1 1 4 6 7 8 10 9 9 13 11 9 9 9 9 8 8 6 6 6 5 4 1 2 1 3 6 9 12 15 17 17 19 23 25 26 26 26 28 31 33 33 33 35 36 38 39 39 38 38 40 41 42 41 40 41 42 42 42 42 41 40 41 40 39 40 40 38 36 33 31 31 32 35 36 35 33 32 36 37 39 40 32 36 37 35 38 44
4 4 2 5 5 2 5 4 3 4 3 4 8 9 9 8 4 6 10 7 6 6 7 7 7 8 7 7 6 5 6 3 3 4 4 6 9 12 14 16 17 19 23 24 25 26 27 30 33 34 35 36 36 37 39 40 39 38 38 39 38 38 40 41 41 42 40 39 41 42 41 41 41 41 40 40 40 38 35 32 30 31 35 36 35 32 29 32 36 38 41 36 35 36 30 33 48
5 6 5 6 5 5 6 4 5 6 5 5 7 9 7 6 6 6 4 4 6 6 7 7 6 7 6 6 6 6 6 5 4 4 5 5 9 11 14 16 16 18 20 22 24 27 29 31 33 34 35 36 36 38 40 39 38 38 39 40 39 39 39 39 38 39 39 39 40 43 43 42 42 43 41 40 40 39 37 34 31 30 33 36 36 32 28 28 32 35 37 41 36 33 35 32 41
4 5 7 7 5 5 6 4 5 5 5 4 1 4 6 3 8 8 4 5 7 6 7 8 7 7 6 6 6 6 5 4 4 3 3 5 8 11 14 16 15 17 20 21 25 28 30 31 32 34 34 34 35 38 38 36 37 39 39 38 38 37 37 37 35 36 40 41 41 41 43 42 42 43 41 40 40 39 38 36 32 30 32 34 36 34 30 28 30 33 33 37 42 34 36 35 33
3 5 6 6 5 4 6 3 3 2 4 4 2 2 6 2 5 9 8 9 9 7 8 9 8 7 6 6 6 5 4 3 1 2 3 5 8 10 13 14 14 18 20 23 27 28 29 31 31 32 33 34 35 36 36 37 39 39 38 37 37 36 35 37 39 40 40 42 42 40 41 42 42 43 43 41 40 39 38 38 35 31 32 33 34 33 31 28 28 31 32 32 38 41 32 31 35
4 4 5 5 3 5 6 3 4 4 2 4 3 4 7 7 6 9 11 10 9 9 9 9 8 7 7 7 6 5 5 4 2 2 4 6 8 11 12 13 14 18 22 25 27 28 28 29 29 30 33 34 34 33 36 38 38 37 38 38 38 38 37 39 43 42 40 40 40 39 39 42 42 42 42 40 40 39 38 40 38 31 31 32 30 29 28 27 26 28 31 33 34 40 40 31 40
6 5 5 4 5 7 6 4 6 3 3 6 7 6 5 8 4 5 9 10 10 11 12 11 9 8 7 7 6 5 4 4 4 1 3 5 9 11 11 12 15 19 22 25 26 27 27 27 28 30 33 34 32 32 36 38 37 36 37 36 36 39 40 41 42 42 41 41 42 42 42 42 42 41 40 38 38 39 38 40 38 32 32 32 28 25 24 23 25 27 28 32 35 36 40 36 35
4 3 2 3 4 6 4 4 5 1 1 9 8 7 4 7 2 4 6 8 11 12 11 10 9 8 8 7 6 6 4 3 2 0 3 6 8 10 10 12 16 19 22 24 26 26 26 27 29 31 33 33 31 33 36 37 37 36 34 34 37 39 42 44 44 44 44 44 45 44 41 39 39 38 36 35 35 37 38 40 38 35 34 30 25 24 24 25 26 27 28 29 34 35 38 43 33
0 2 3 4 5 3 1 2 0 2 4 9 8 10 7 6 3 7 6 6 10 11 9 9 8 8 8 7 6 6 5 3 1 2 5 8 9 9 10 14 17 20 22 24 26 26 27 28 30 32 33 33 33 35 35 35 36 35 34 35 37 39 41 42 42 41 42 43 41 39 36 36 38 38 36 35 35 36 37 40 40 37 35 29 23 22 24 26 27 27 28 27 30 35 37 44 44
3 3 3 4 5 3 3 3 2 1 6 6 5 9 8 6 5 7 7 5 8 14 13 13 11 9 8 6 6 6 5 4 3 3 5 9 10 8 12 15 17 19 22 25 25 26 27 29 30 32 34 34 34 35 34 34 34 35 35 36 37 38 38 39 39 40 40 39 37 36 37 38 39 40 39 37 37 35 35 38 39 35 32 27 21 21 22 23 26 26 26 26 28 33 35 40 46
4 4 4 3 5 4 3 3 1 4 7 4 2 3 5 9 6 7 9 6 8 13 13 14 12 10 8 6 6 5 5 4 4 4 6 7 6 9 12 12 15 18 22 24 25 26 27 29 30 32 34 34 35 36 34 34 34 35 36 36 36 37 37 39 39 38 38 38 38 38 37 36 36 37 39 38 38 38 38 39 38 34 31 27 21 20 20 20 23 25 25 25 26 30 33 36 44
4 3 3 2 1 3 5 4 3 5 5 4 2 2 3 6 5 6 10 7 7 10 10 11 11 10 8 7 6 5 5 5 5 6 6 4 5 9 10 10 13 17 21 22 24 26 28 30 31 32 34 35 35 35 33 34 35 35 35 35 35 36 37 38 38 37 37 38 39 39 37 35 34 33 35 37 38 41 41 39 40 38 36 30 22 19 19 18 21 23 23 23 23 26 31 34 41
4 4 4 4 3 2 5 3 4 6 6 4 2 0 4 3 4 3 6 7 7 9 9 9 8 8 7 7 6 5 5 6 6 4 3 5 7 10 10 10 13 16 20 21 24 27 28 30 32 32 33 35 35 34 34 35 36 35 34 34 35 36 36 36 36 36 36 37 38 38 37 34 34 33 34 37 37 40 42 39 40 41 37 31 23 19 18 18 19 21 22 22 22 23 27 30 35
3 3 4 2 4 4 4 3 4 3 6 5 3 3 5 3 3 3 6 7 7 8 8 8 8 7 7 6 6 6 6 6 3 2 4 6 9 11 10 11 14 16 17 20 24 27 29 31 32 32 33 35 36 35 34 35 36 36 35 35 36 36 36 35 34 34 34 36 37 37 36 34 34 35 35 36 37 38 39 38 40 41 38 34 26 19 17 17 18 19 21 23 23 20 22 27 29
1 3 3 5 4 4 2 4 1 2 5 6 3 4 4 1 1 1 6 6 7 7 7 8 8 7 7 6 6 6 5 2 1 2 4 6 8 9 10 12 15 16 17 21 26 28 28 30 31 32 35 36 37 35 34 35 36 37 36 36 37 37 37 37 35 35 35 35 36 36 35 35 33 34 34 35 36 37 36 36 38 40 39 36 29 20 16 15 16 17 20 22 24 22 21 25 27
4 3 4 3 1 2 1 2 3 1 5 6 2 6 7 1 2 3 5 7 8 7 7 8 7 7 7 6 6 4 2 0 3 4 4 6 8 9 12 14 15 15 19 24 27 28 28 28 29 31 34 36 37 36 37 37 36 36 37 37 37 38 38 37 36 37 36 36 37 36 35 35 35 34 35 35 34 35 35 35 35 36 38 36 31 23 16 14 15 15 19 21 23 23 22 25 26
3 3 2 1 0 2 2 2 2 3 6 7 2 5 7 5 5 6 10 12 12 9 8 8 8 8 7 6 5 2 1 2 4 5 4 5 8 11 14 15 14 16 22 26 28 28 27 28 30 31 33 34 34 35 37 37 36 36 37 37 38 41 40 36 36 37 36 36 37 38 36 35 36 36 35 34 33 34 35 34 34 33 35 36 33 28 19 14 15 15 16 19 21 22 23 25 26
3 1 2 0 2 3 2 2 2 3 6 7 5 5 4 5 7 11 16 15 13 11 8 8 8 8 7 5 5 3 3 5 5 4 4 5 8 13 15 14 14 17 23 26 27 27 27 29 30 31 33 34 33 34 34 35 35 35 36 37 38 40 39 36 35 36 36 36 37 38 38 36 36 36 34 33 33 34 34 33 33 33 33 34 33 30 24 16 14 15 14 16 18 21 23 24 26
3 2 2 2 2 1 2 2 3 3 7 5 6 9 5 2 3 11 16 14 13 11 9 8 8 7 7 6 6 5 5 6 5 3 4 5 9 13 14 13 15 19 24 25 24 25 26 28 30 30 32 33 34 35 34 34 35 35 35 36 37 38 38 36 35 35 36 37 37 37 37 36 36 36 34 34 34 33 32 31 32 33 34 33 33 32 28 21 15 15 14 15 16 18 23 24 25
5 5 5 5 5 2 3 6 3 4 6 4 5 12 8 2 2 6 10 10 10 10 9 8 7 8 7 6 6 6 5 5 4 4 4 6 9 12 13 13 16 20 23 24 24 24 25 28 30 30 30 31 33 34 34 34 36 36 35 35 37 38 37 35 35 37 37 37 37 37 37 37 37 36 35 34 33 31 30 30 33 34 34 34 33 32 31 26 20 16 15 15 16 18 21 23 23
Wind_Direction
359 28 37 356 330 332 315 147 77 350 75 76 158 91 2 19 90 62 40 30 52 345 306 67 41 64 63 144 148 87 50 8 14 101 84 256 332 6 12 9 11 12 6 348 334 348 337 334 343 345 285 256 245 243 248 248 242 239 240 238 241 240 242 241 242 242 239 236 235 237 238 241 241 240 245 249 252 259 267 270 273 278 283 286 287 281 272 266 262 260 259 258 249 244 245 247 248
8 15 42 337 307 329 281 120 86 11 60 46 1 83 344 8 53 79 79 76 110 243 311 39 67 39 2 135 115 78 37 12 32 116 125 3 332 4 14 13 11 8 9 0 331 353 353 339 338 346 334 290 263 253 250 253 253 244 246 246 250 247 243 241 243 245 241 239 235 232 234 238 241 244 248 251 252 254 258 261 266 272 278 283 289 291 282 274 270 265 260 257 250 243 244 247 248
23 20 40 352 297 180 359 41 86 77 74 83 12 344 16 50 58 110 117 111 145 211 26 38 83 40 20 46 73 101 49 26 29 68 109 17 6 3 12 16 16 13 17 17 356 2 5 352 341 341 342 325 291 267 255 253 255 249 248 247 252 253 249 245 246 246 243 243 239 235 236 236 239 246 254 256 254 255 256 257 259 263 270 275 280 287 283 276 273 269 263 257 249 243 243 246 248
28 23 11 12 9 31 49 55 128 114 99 129 58 328 28 77 47 91 136 123 115 67 49 42 62 272 67 43 38 96 53 53 31 23 34 15 13 9 19 27 26 28 28 29 24 14 10 4 350 343 342 334 316 285 271 262 258 257 255 249 251 253 254 253 254 254 248 250 250 245 243 242 245 252 258 258 255 255 257 258 258 258 263 268 270 274 276 274 270 268 264 256 248 240 241 245 247
10 6 329 17 76 26 74 70 77 96 111 153 117 311 28 79 32 44 167 114 96 79 78 72 36 318 55 38 21 70 333 237 29 26 41 19 23 27 32 35 33 35 32 30 25 17 12 8 359 354 347 336 325 305 289 277 271 266 264 259 258 258 257 257 259 260 253 255 259 251 249 253 256 259 258 258 256 256 258 260 261 261 261 263 264 266 269 271 268 266 261 257 251 242 240 243 246
356 4 340 67 99 145 80 55 61 87 145 147 120 213 73 59 32 61 137 70 69 70 79 92 100 55 74 70 67 71 2 14 360 16 30 27 32 33 34 36 35 34 32 30 25 20 12 6 2 360 356 348 336 320 304 290 283 275 271 268 267 266 264 262 258 258 254 257 260 253 254 259 261 260 257 257 258 258 261 262 261 262 262 261 262 264 265 267 268 269 264 258 256 247 243 243 244
348 358 53 48 6 75 82 92 150 114 41 111 128 165 102 42 14 66 67 76 51 31 44 68 111 91 84 116 84 56 35 42 25 18 24 31 34 33 34 35 35 33 31 31 29 26 19 13 11 8 6 2 355 343 326 305 291 283 280 275 273 271 270 269 262 258 255 257 260 258 258 260 262 260 255 254 256 258 262 263 261 260 262 262 262 264 264 264 268 276 275 268 264 256 250 246 241
337 342 72 77 19 25 77 85 178 153 82 107 129 136 108 66 28 55 41 115 120 57 11 325 86 91 63 68 83 37 35 41 39 37 39 43 39 39 40 39 39 37 35 35 34 32 27 23 19 16 12 8 6 1 352 336 312 294 287 281 278 276 273 271 268 263 258 258 260 261 261 262 263 259 255 254 258 261 262 263 260 255 256 259 260 262 263 264 267 275 279 277 272 264 259 253 241
319 48 34 73 45 12 36 360 29 114 98 100 98 94 113 100 73 66 30 37 107 107 357 302 76 98 96 74 90 36 30 32 41 47 48 49 47 46 46 45 45 43 41 39 37 35 33 29 25 21 15 11 7 4 1 356 344 324 303 289 282 279 277 272 269 267 263 262 263 263 262 262 261 256 256 259 261 262 261 260 258 254 254 257 259 260 261 262 264 270 274 275 271 264 264 258 241
44 64 69 73 45 11 1 292 60 90 102 107 99 96 119 104 81 68 60 47 83 103 350 327 75 89 99 78 85 31 18 26 42 46 46 47 46 46 47 48 45 44 43 41 38 36 36 33 30 26 19 15 10 7 2 358 355 348 334 315 299 288 283 278 272 268 265 264 264 264 264 263 259 254 255 259 261 260 260 261 259 256 255 257 259 260 261 260 262 267 269 268 266 260 261 259 241
35 345 86 74 41 13 9 155 122 109 115 102 72 53 80 95 95 45 54 72 77 90 10 17 85 102 95 81 88 33 23 35 42 44 45 45 45 45 47 47 44 43 42 39 38 37 36 34 32 28 24 19 12 9 4 359 355 350 347 339 326 312 301 293 285 277 271 267 264 264 266 265 261 258 259 260 261 261 261 261 261 259 257 258 259 259 260 261 262 264 264 261 260 256 257 259 244
43 332 61 75 111 233 221 145 131 115 58 50 11 313 88 79 84 35 52 88 75 78 44 17 112 123 98 89 86 32 30 39 43 48 49 47 47 46 45 46 43 40 37 35 35 34 33 31 29 27 24 22 18 13 7 3 357 350 346 342 337 330 321 310 301 292 287 279 270 266 266 266 264 263 264 264 262 261 263 263 262 261 259 259 259 258 257 259 262 263 262 259 260 257 254 257 245
62 360 74 92 192 208 221 121 137 109 27 351 212 239 101 70 79 119 91 95 79 81 31 329 159 104 89 106 63 28 29 36 46 53 52 49 48 46 44 44 41 38 34 33 33 31 30 28 26 24 22 20 19 18 14 10 3 356 348 341 336 331 328 322 313 305 298 292 285 276 270 268 267 267 268 267 264 262 263 265 264 263 261 261 260 258 257 257 258 259 260 259 260 261 258 256 249
95 124 103 163 274 76 155 99 112 97 50 253 244 20 92 88 133 118 104 84 43 92 51 1 61 103 78 100 50 18 29 38 50 55 53 51 47 45 42 40 38 36 34 32 32 30 28 26 24 23 21 17 15 16 16 15 10 2 354 346 338 332 329 325 320 313 306 301 296 290 282 273 269 269 269 269 266 263 263 264 264 264 263 263 263 261 259 258 256 255 257 257 258 260 261 259 254
130 128 99 105 335 356 110 90 117 105 132 245 26 82 88 71 133 86 98 101 32 16 67 24 28 92 61 77 63 28 42 44 51 54 53 49 44 43 39 36 35 34 34 32 29 28 27 25 23 22 20 16 14 16 16 14 11 6 359 353 347 340 333 327 323 319 314 308 303 298 292 284 277 273 271 269 266 263 263 263 261 260 261 261 262 262 260 257 255 253 254 255 256 257 258 260 254
122 107 72 62 327 327 258 90 105 92 140 213 41 91 89 356 61 83 43 104 60 24 60 35 33 74 71 82 85 58 52 49 52 52 51 45 40 39 35 33 31 31 32 29 26 23 24 24 22 20 19 16 13 16 15 11 8 5 1 356 352 347 341 334 327 323 319 312 306 301 296 290 284 278 272 267 262 260 261 260 259 257 258 259 257 258 258 256 255 254 254 254 255 255 254 257 253
60 76 60 13 309 209 244 80 112 120 150 3 25 58 103 346 342 78 56 79 87 60 64 59 57 74 80 83 75 62 56 52 50 49 46 41 36 33 29 27 26 25 26 26 23 18 18 21 19 16 17 14 11 13 12 9 5 3 0 356 353 349 345 340 334 328 323 318 311 305 297 290 284 280 275 268 260 258 259 257 257 258 257 257 255 254 256 255 254 255 256 257 255 253 252 253 252
49 71 69 331 244 192 222 131 129 130 112 7 34 79 110 136 326 33 67 75 93 84 73 72 68 67 72 72 65 60 59 54 50 48 44 39 35 31 25 22 22 20 19 21 20 15 14 16 15 12 12 11 9 9 8 6 3 1 359 355 352 348 345 342 338 334 328 324 319 313 306 295 285 281 279 274 265 261 263 259 256 258 257 256 254 252 253 252 251 253 255 256 255 252 248 246 245
73 94 65 253 216 220 191 119 71 98 132 130 29 93 100 151 241 51 72 85 92 89 80 76 71 61 60 60 60 59 58 56 51 49 47 42 38 34 26 20 20 18 16 15 15 12 10 12 12 9 8 8 5 4 5 4 1 358 356 352 350 347 344 342 339 336 332 328 322 319 316 309 297 285 280 279 274 268 266 262 259 257 255 256 254 251 251 250 249 250 251 252 252 250 246 242 239
87 94 40 252 230 277 357 90 100 124 130 90 360 75 86 328 312 92 103 83 65 82 97 94 87 76 65 53 56 57 55 55 51 48 44 42 41 38 30 21 18 16 13 13 13 10 8 8 9 7 4 4 2 359 0 1 358 355 354 351 348 346 343 340 338 335 333 331 327 321 318 316 311 299 287 279 275 272 266 263 262 258 254 255 254 251 250 247 246 248 248 248 246 242 241 239 235
53 110 190 243 277 343 332 68 104 108 97 86 357 51 61 358 19 93 124 85 51 67 95 110 110 102 88 65 60 59 58 56 52 50 44 40 40 39 33 23 19 16 12 13 13 8 7 6 7 4 360 2 1 356 356 357 355 353 351 350 346 344 342 339 337 334 332 330 328 325 321 317 314 311 301 285 274 268 264 263 262 259 257 254 250 249 246 243 243 244 243 240 237 236 236 236 232
29 250 214 238 28 327 295 66 83 82 70 55 58 62 53 52 34 46 105 99 102 108 98 106 108 108 101 89 74 64 61 57 54 52 44 37 34 37 34 24 20 18 13 12 11 7 6 6 6 2 357 0 359 355 354 353 354 350 348 347 345 343 339 336 336 335 332 329 326 324 323 320 316 313 309 300 285 270 261 260 261 261 258 255 250 246 244 240 240 240 238 235 234 234 234 235 231
342 286 259 265 47 254 301 58 64 80 76 44 79 126 100 89 60 43 83 101 129 118 107 104 102 103 99 89 77 65 58 55 52 48 42 33 24 27 31 24 19 15 12 9 7 4 5 5 5 1 358 360 357 354 352 350 351 346 344 344 342 341 337 335 335 334 332 330 327 325 322 320 318 314 310 307 299 286 272 262 260 260 258 257 252 246 244 237 236 237 235 234 234 234 233 234 231
137 271 274 276 323 302 302 48 61 95 102 188 69 65 133 116 108 76 88 109 120 109 102 99 99 98 92 83 77 72 63 52 49 46 43 36 23 19 23 20 15 10 9 8 5 2 4 4 2 0 359 358 354 353 350 347 346 342 341 341 339 338 336 334 332 331 332 332 331 329 326 321 318 316 312 308 303 298 288 275 265 260 256 254 248 244 244 234 231 233 231 233 233 234 233 231 229
162 228 265 277 307 291 286 26 56 104 115 72 47 33 152 134 117 102 115 130 120 112 103 97 96 91 88 88 86 78 65 53 46 43 41 36 26 19 16 13 9 7 6 5 2 0 2 2 0 358 356 355 353 352 349 346 343 340 340 338 338 337 334 333 331 331 332 332 332 332 330 326 322 318 315 311 306 300 294 288 279 266 257 250 243 240 240 232 226 229 230 230 230 232 229 225 225
205 204 262 303 294 296 293 306 99 149 108 48 52 49 115 129 107 91 144 147 129 115 106 101 96 91 94 96 95 87 76 64 52 41 35 31 23 16 12 6 5 4 1 1 1 359 359 359 359 356 354 354 352 350 347 344 342 340 339 337 336 335 334 331 330 332 331 330 330 331 331 328 325 322 319 316 312 305 298 292 286 276 262 250 242 238 237 231 226 226 226 224 225 225 221 220 221
236 339 307 306 283 296 296 236 263 156 140 73 90 104 151 157 106 120 188 166 137 114 107 107 101 104 107 100 100 98 94 79 60 45 33 24 17 11 7 2 359 360 358 359 360 358 357 357 357 356 354 352 349 347 345 343 341 339 337 336 335 334 332 330 329 329 327 328 327 327 328 326 325 323 321 319 317 313 306 298 289 282 271 256 243 237 234 227 223 224 223 220 219 217 215 218 219
356 15 340 313 288 293 280 236 270 187 183 104 123 146 172 195 84 157 175 164 140 121 116 118 114 120 115 108 110 103 100 84 60 45 32 18 9 2 360 357 353 356 358 358 356 357 357 356 355 355 353 350 348 345 343 341 340 337 335 333 332 332 330 328 326 324 323 324 323 323 323 322 322 320 319 318 317 315 313 308 298 286 277 265 247 235 228 222 221 222 221 218 216 214 214 217 216
36 51 346 313 333 319 266 238 221 176 235 348 99 104 182 209 191 155 157 150 137 124 126 128 126 135 129 126 120 97 90 81 61 44 31 14 7 355 354 357 355 357 360 359 357 358 358 355 354 355 353 351 349 345 342 340 337 335 333 331 329 328 327 325 322 321 320 319 320 320 319 318 318 318 318 316 315 316 316 315 309 298 285 273 260 244 229 220 217 215 212 211 210 209 210 211 210
325 87 145 326 12 324 256 224 171 164 207 39 79 306 261 215 162 153 155 148 135 128 136 136 134 141 138 136 121 100 84 80 70 43 25 13 9 359 358 4 6 4 3 2 2 1 358 357 357 355 355 352 349 346 343 340 336 334 331 329 327 325 323 321 318 317 315 315 316 316 315 316 315 315 317 316 315 316 317 316 314 310 299 283 268 256 239 221 213 208 204 203 204 204 204 206 205
328 201 108 89 98 284 268 208 155 170 224 87 99 257 256 184 160 162 163 151 141 140 147 145 146 144 135 134 120 116 89 77 80 42 23 19 14 8 8 10 10 7 5 5 4 1 357 358 358 355 353 351 348 346 343 339 335 332 330 327 325 323 321 318 315 314 313 312 313 312 312 312 312 313 314 315 314 314 317 318 316 315 312 299 276 261 249 226 211 205 200 197 198 201 202 203 203
21 184 316 328 173 264 290 230 169 179 239 100 117 258 245 182 184 176 164 153 144 145 157 154 149 143 137 138 117 113 95 70 76 44 27 24 19 15 13 11 10 8 7 6 2 0 359 358 356 352 350 347 344 342 340 337 334 331 328 325 323 322 319 316 314 312 311 310 309 309 309 309 309 309 311 313 312 312 319 320 318 317 315 311 292 268 257 237 212 202 198 196 195 196 198 200 201
348 97 264 288 276 291 310 283 217 180 191 161 187 223 219 191 196 189 172 158 148 146 157 153 146 144 136 133 118 113 110 62 33 37 31 28 22 16 13 10 10 8 7 6 2 1 359 356 353 349 344 341 339 339 339 337 333 330 327 325 323 320 318 315 313 311 308 307 306 306 307 307 305 304 306 310 308 308 317 319 318 318 315 313 305 284 266 250 221 203 200 199 196 194 195 197 199
329 8 285 281 299 305 303 304 289 189 181 232 223 227 252 203 180 188 181 160 150 150 158 154 151 147 138 138 130 135 143 171 282 40 37 30 22 16 13 11 10 8 6 4 3 0 357 352 348 345 340 336 337 338 338 335 332 329 326 324 322 319 317 314 313 310 307 305 304 304 304 304 302 301 302 304 301 302 309 314 316 318 316 311 307 299 279 259 235 210 201 200 198 195 195 197 198
255 275 283 294 301 286 263 274 264 194 196 235 239 254 269 205 174 187 182 163 153 157 162 157 153 149 149 149 140 152 158 178 165 56 41 30 21 15 12 11 9 7 5 2 2 1 355 349 345 343 339 336 336 337 336 333 329 326 324 324 322 319 316 314 312 309 306 304 302 302 302 301 299 299 299 299 296 296 302 308 313 315 315 310 302 303 294 270 249 226 207 200 200 198 198 200 199
214 240 227 259 283 278 261 259 241 185 186 241 238 249 259 193 187 198 183 163 154 160 162 155 158 154 151 153 152 161 166 165 112 61 41 29 17 11 9 10 9 5 2 0 3 0 354 348 344 343 341 337 336 336 335 331 327 324 322 322 321 319 315 312 309 307 305 303 302 301 300 298 298 298 297 296 292 292 297 303 309 312 311 308 297 295 297 288 270 246 219 202 199 199 200 201 198
215 253 255 256 263 272 271 271 259 168 164 250 234 239 253 209 202 202 181 159 158 165 167 165 162 157 155 156 161 162 170 172 112 66 39 23 9 6 7 8 7 2 1 2 3 359 352 349 344 342 340 337 336 335 333 330 326 322 321 321 319 317 314 311 308 306 305 303 302 300 299 297 297 298 296 293 290 288 293 299 303 308 310 306 295 289 290 291 291 278 247 211 195 194 197 199 196
241 246 268 278 260 259 268 253 227 163 158 268 248 253 262 243 225 198 170 169 176 177 171 170 164 160 164 158 166 168 162 166 82 62 29 10 359 3 6 5 3 359 1 3 2 357 353 350 345 341 339 337 336 335 332 329 324 320 319 318 316 313 311 309 307 306 306 303 302 299 298 297 296 295 294 291 288 285 288 294 298 304 308 305 294 288 290 287 289 295 280 231 195 192 195 194 189
240 255 280 284 263 267 282 255 207 169 323 268 264 268 259 253 243 191 180 183 183 182 168 166 162 157 168 166 172 169 142 29 326 297 338 352 354 2 3 0 359 358 1 4 3 359 354 350 346 342 339 337 334 333 332 328 322 320 317 315 314 312 311 310 307 306 306 305 303 301 299 298 295 293 292 290 286 283 285 289 294 300 304 304 293 286 292 290 283 292 289 249 205 196 198 191 185
238 245 254 265 262 269 281 279 306 321 297 265 274 277 257 249 249 186 191 180 153 167 159 159 162 159 174 175 168 156 154 199 254 256 287 339 351 357 358 353 354 358 2 6 5 360 353 349 346 342 338 335 332 331 331 328 324 322 320 317 315 313 311 310 308 306 306 306 305 303 301 299 297 292 289 288 284 282 282 284 289 296 301 303 296 283 284 289 280 285 294 274 227 198 192 191 187
253 225 217 244 251 233 240 276 329 328 310 285 285 289 264 214 197 190 186 140 141 157 150 154 169 171 169 157 160 163 165 189 216 247 283 331 346 348 351 348 350 359 6 8 4 357 351 347 344 341 336 332 330 330 330 330 328 326 325 322 320 318 313 311 310 309 310 309 306 303 301 299 297 293 289 286 283 281 281 282 284 292 298 302 298 285 276 284 281 277 289 292 268 217 190 188 189
282 238 215 220 213 228 258 321 355 337 303 286 308 306 285 198 179 189 166 153 169 170 163 166 178 183 165 147 166 174 171 190 201 233 286 330 340 342 344 343 347 1 9 6 359 354 349 344 341 338 335 331 329 329 331 331 330 328 326 324 322 320 316 312 310 310 310 309 306 304 303 301 297 294 290 287 283 281 280 280 282 288 295 300 300 289 276 282 285 279 280 288 290 261 208 186 185
282 245 189 174 172 223 266 304 345 283 263 265 133 257 282 275 178 193 177 174 186 184 180 180 185 187 170 165 170 165 178 194 197 290 305 335 335 329 331 338 353 5 5 358 352 349 344 340 338 336 333 330 329 329 331 331 329 327 324 322 319 316 313 309 308 307 306 304 303 304 305 304 299 294 290 287 283 281 281 281 280 285 292 297 299 290 278 280 283 284 283 282 292 290 256 202 182
248 234 149 151 192 244 254 241 240 241 281 290 234 205 266 277 228 195 172 176 195 194 192 191 191 186 170 171 168 159 179 179 147 325 327 337 327 318 323 340 359 3 357 351 347 344 340 337 334 332 331 329 329 329 329 329 328 325 322 319 317 315 312 309 308 307 306 305 304 304 305 304 302 295 289 287 284 281 281 280 277 281 289 294 296 289 278 278 282 283 288 288 289 296 286 239 191
248 213 164 194 222 242 247 232 245 265 11 288 238 175 244 270 248 168 160 180 207 201 195 193 187 181 168 167 170 164 177 179 157 95 324 313 312 313 325 344 356 356 351 346 343 339 336 334 331 329 329 328 328 328 328 326 324 322 319 317 315 315 313 310 309 307 307 307 305 304 304 302 301 296 289 289 287 283 282 278 275 278 286 290 291 289 282 280 284 282 285 292 290 291 293 272 213
245 187 209 270 258 252 239 230 255 357 319 261 234 166 216 265 227 138 160 204 218 202 189 190 184 175 167 166 170 168 171 180 157 161 273 292 304 308 323 346 352 352 347 343 339 336 334 331 328 327 327 327 326 327 326 323 322 321 319 317 316 315 314 312 309 307 307 307 304 303 303 302 301 296 291 293 294 289 284 276 273 277 280 285 287 287 289 287 284 282 280 284 288 288 292 290 256
180 55 344 328 298 275 184 211 251 56 256 256 219 181 202 267 241 166 179 216 203 182 174 184 182 169 167 169 165 165 165 166 192 249 263 279 283 298 332 349 351 348 344 341 336 333 331 328 326 324 324 325 325 326 324 321 321 321 319 318 317 315 314 312 309 308 309 307 305 304 306 307 307 304 300 301 301 298 291 278 270 271 272 275 284 288 291 291 283 278 278 277 282 288 289 293 280
69 60 28 345 312 345 33 359 56 150 254 261 220 192 195 234 243 195 212 234 176 171 175 177 173 166 168 169 165 165 164 172 207 234 252 260 265 312 349 350 349 346 341 338 332 329 327 325 324 322 322 323 324 324 322 319 320 320 320 319 317 315 313 311 308 306 307 307 306 308 309 308 308 308 307 307 306 307 306 292 273 263 264 268 276 288 292 294 287 275 275 277 279 287 286 290 287
82 79 59 360 320 350 353 310 218 221 249 256 187 157 208 236 246 211 215 224 178 170 170 166 161 161 166 165 164 166 165 178 207 225 240 249 277 338 348 344 346 343 337 333 328 326 324 322 321 320 320 321 323 321 319 319 320 321 321 319 317 316 314 312 308 305 305 305 305 306 307 306 305 306 305 305 305 306 310 306 289 269 264 269 273 286 292 292 289 278 274 276 275 282 284 285 290
140 134 125 162 310 328 292 271 272 270 270 258 136 75 271 263 277 221 195 185 163 150 146 152 152 154 163 162 162 168 176 194 211 221 243 280 330 335 332 338 342 337 332 329 325 324 322 320 320 318 317 318 320 318 316 318 320 320 320 318 317 317 315 313 310 306 304 303 303 303 303 303 303 303 302 299 299 301 303 306 304 287 267 266 273 280 287 288 287 282 276 275 272 277 282 282 292
187 164 142 169 171 223 265 250 256 280 288 260 193 246 238 224 307 275 157 134 127 128 133 140 145 153 155 154 158 169 192 208 216 229 287 322 327 325 327 334 334 331 329 327 324 323 320 317 317 316 315 316 318 317 316 318 319 319 319 317 316 316 314 311 309 307 304 303 303 300 299 300 301 301 301 298 296 299 301 304 310 299 273 265 274 275 279 284 285 284 280 279 275 276 284 283 289
239 141 118 200 184 189 251 229 208 286 309 274 205 226 227 188 334 11 111 121 121 127 138 138 148 157 147 153 168 184 205 213 224 300 324 314 316 323 325 325 325 326 326 325 324 322 318 315 314 313 313 314 316 315 316 318 318 318 318 317 318 318 315 311 307 306 304 304 304 300 297 298 300 301 300 299 297 298 301 303 309 307 285 267 269 271 273 280 284 286 286 286 285 281 287 289 288
201 136 177 231 178 149 248 272 301 36 304 273 204 244 271 53 331 167 128 137 141 148 154 148 161 163 150 167 186 194 206 212 297 295 285 292 309 317 315 318 320 322 325 325 322 319 315 312 311 310 311 313 315 315 316 318 318 318 318 318 319 319 317 311 307 306 304 303 303 301 299 297 298 301 301 300 299 298 301 303 306 310 299 277 265 264 268 275 281 286 288 289 293 293 293 294 290
145 187 228 236 113 104 149 273 324 8 264 267 200 239 255 178 218 221 165 171 178 181 173 162 170 166 163 183 187 187 188 204 269 264 268 287 302 311 314 316 317 321 325 323 320 317 313 310 309 309 310 312 314 315 317 318 318 317 317 318 318 319 317 310 305 306 305 302 301 300 299 298 298 299 300 299 299 300 303 305 304 308 309 295 274 261 260 271 277 283 288 288 292 298 297 296 293
136 212 252 98 197 258 150 162 258 246 263 273 230 242 244 201 191 194 191 195 192 188 179 174 177 171 173 185 179 180 272 241 247 259 276 292 302 311 316 315 315 321 324 321 319 316 314 312 311 310 310 311 312 314 316 316 316 315 315 315 316 317 315 308 304 306 305 301 300 299 298 297 298 298 298 298 300 302 302 304 304 303 310 309 290 267 254 263 276 280 288 289 292 297 294 293 293
70 9 318 359 199 221 189 177 188 219 265 275 284 290 256 204 187 182 194 200 187 181 182 182 184 177 175 173 170 188 216 222 234 256 274 284 298 310 315 313 312 320 322 320 318 315 315 315 314 313 312 312 312 313 314 314 313 312 312 312 314 317 315 308 305 304 304 301 299 299 298 296 298 298 298 298 300 302 300 300 303 302 305 312 304 281 260 255 272 279 286 291 292 295 292 288 290
138 167 237 235 223 232 263 235 158 197 254 263 284 285 260 202 188 181 191 195 180 176 180 183 183 174 170 168 173 192 202 210 230 255 274 284 298 310 314 310 313 320 321 320 317 315 316 316 315 314 313 312 313 315 314 313 311 310 311 311 313 317 314 308 306 303 302 302 300 298 298 297 297 297 298 299 298 298 299 298 300 301 300 304 307 296 276 261 264 275 281 292 293 292 290 286 287
174 188 195 201 213 217 269 263 186 191 241 221 253 271 262 211 183 171 177 181 175 177 176 173 172 166 171 178 179 188 193 198 226 257 276 285 296 304 308 311 318 322 321 320 319 318 317 316 315 315 314 313 313 314 314 313 311 310 311 312 314 316 313 308 306 304 301 301 299 297 297 297 296 296 297 298 297 296 298 298 297 298 297 296 300 301 290 272 265 272 276 284 291 290 290 287 285